Weather History for Kelowna, BC

Change the Weather History Date:

Tuesday, March 5, 2013

  Actual Average Record
Temperature  
Mean Temperature 38 °F -  
Max Temperature 44 °F 48 °F 57 °F (2005)
Min Temperature 31 °F 28 °F 17 °F (2002)
Degree Days  
Heating Degree Days 28    
Moisture  
Dew Point 27 °F    
Average Humidity 64    
Maximum Humidity 81    
Minimum Humidity 36    
Precipitation  
Precipitation 0.00 in 0.03 in - ()
Sea Level Pressure  
Sea Level Pressure 30.03 in    
Wind  
Wind Speed 5 mph ()    
Max Wind Speed 14 mph    
Max Gust Speed -    
Visibility 9.2 miles    
Events      
Averages and records for this station are not official NWS values.
T = Trace of Precipitation, MM = Missing Value Source: Averaged Metar Reports

Daily Weather History Graph

Daily Weather History Graph

Search for Another Location

Airport:

Trip Planner

Search our weather history database for the weather conditions in past years. The results will help you decide how hot, cold, wet, or windy it might be!

Date:

Astronomy

Mar. 05, 2013 Rise Set
Actual Time 6:31 AM PST 5:46 PM PST
Civil Twilight 5:59 AM PST 6:19 PM PST
Nautical Twilight 5:22 AM PST 6:56 PM PST
Astronomical Twilight 4:44 AM PST 7:34 PM PST
Moon 2:15 AM PST (3/5) 11:04 AM PST (3/5)
Length of Visible Light 12h 19m
Length of Day
11h 15m
Last Quarter, 39% of the Moon is Illuminated
Mar 5
Last Quarter
Mar 11
New
Mar 19
First Quarter
Mar 27
Full
Apr 2
Last Quarter

Hourly Weather History & Observations

Time (PST) Temp. Windchill Dew Point Humidity Pressure Visibility Wind Dir Wind Speed Gust Speed Precip Events Conditions
12:00 AM 33.8 °F - 26.6 °F 75% 30.16 in 9.0 mi Calm Calm - N/A   Overcast
2:00 AM 35.6 °F 29.2 °F 28.4 °F 75% 30.14 in 9.0 mi NNE 8.1 mph - N/A   Overcast
3:00 AM 33.8 °F 27.7 °F 28.4 °F 81% 30.12 in 9.0 mi ENE 6.9 mph - N/A   Overcast
4:00 AM 35 °F - 29 °F 69% 30.11 in 10 mi NNE 6.9 mph - -   Overcast
5:00 AM 33.8 °F 27.7 °F 26.6 °F 75% 30.11 in 9.0 mi NE 6.9 mph - N/A   Overcast
6:00 AM 32.0 °F 25.6 °F 26.6 °F 80% 30.10 in 9.0 mi NE 6.9 mph - N/A   Mostly Cloudy
7:00 AM 33.8 °F 27.7 °F 26.6 °F 75% 30.10 in 9.0 mi NNE 6.9 mph - N/A   Mostly Cloudy
8:00 AM 33.8 °F 27.0 °F 28.4 °F 81% 30.10 in 9.0 mi NNE 8.1 mph - N/A   Partly Cloudy
9:00 AM 37.4 °F 29.3 °F 28.4 °F 70% 30.08 in 9.0 mi North 12.7 mph - N/A   Clear
10:00 AM 39 °F - 25 °F 46% 30.09 in 10 mi North 13.8 mph - -  
10:00 AM 39.2 °F 31.2 °F 24.8 °F 56% 30.09 in 9.0 mi North 13.8 mph - N/A   Clear
12:00 PM 41.0 °F 34.3 °F 24.8 °F 53% 30.04 in 9.0 mi North 11.5 mph - N/A   Clear
1:00 PM 41.0 °F 35.8 °F 24.8 °F 53% 30.01 in 9.0 mi NNW 8.1 mph - N/A   Mostly Cloudy
2:00 PM 42.8 °F 39.3 °F 23.0 °F 46% 29.98 in 9.0 mi North 5.8 mph - N/A   Overcast
3:00 PM 42.8 °F 38.6 °F 23.0 °F 46% 29.95 in 9.0 mi NNW 6.9 mph - N/A   Partly Cloudy
4:00 PM 44 °F - 26 °F 36% 29.95 in 10 mi South 4.6 mph - -  
4:00 PM 42.8 °F 38.6 °F 26.6 °F 53% 29.95 in 9.0 mi South 6.9 mph - N/A   Mostly Cloudy
5:00 PM 42.8 °F 38.6 °F 24.8 °F 49% 29.94 in 9.0 mi SW 6.9 mph - N/A   Overcast
6:00 PM 41.0 °F - 24.8 °F 53% 29.94 in 9.0 mi Variable 2.3 mph - N/A   Overcast
7:00 PM 39.2 °F - 28.4 °F 65% 29.94 in 9.0 mi Calm Calm - N/A   Overcast
8:00 PM 39.2 °F - 26.6 °F 61% 29.94 in 9.0 mi SSE 2.3 mph - N/A   Overcast
9:00 PM 35.6 °F - 28.4 °F 75% 29.93 in 9.0 mi Calm Calm - N/A   Overcast
10:00 PM 35 °F - 29 °F 71% 29.93 in 10 mi North 1.2 mph - -   Overcast
10:00 PM 35.6 °F - 28.4 °F 75% 29.93 in 9.0 mi Calm Calm - N/A   Overcast
11:00 PM 37.4 °F - 28.4 °F 70% - 9.0 mi NNW 2.3 mph - N/A   Overcast